Home   Weather   Winsen (Luhe)   Past weeks

Flag for Germany Past Weather in Winsen (Luhe), Lower Saxony, Germany — Yesterday and Last 2 Weeks

Now
32 °F

Ice fog.


Feels Like: 26 °F
Forecast: 22 / 31 °F
Wind: 7 mph from West

Location: Hamburg-Finkenwerder

Current Time: Jan 24, 2017 at 8:48:19 pm

Latest Report: Jan 24, 2017 at 8:20 pm


Visibility: 2 mi

Pressure: 30.45 "Hg

Humidity: 93%

Dew Point: 30 °F

Location of Winsen (Luhe)Location

Past Weather in Winsen (Luhe) — Graph

°F

Winsen (Luhe) Temperature Yesterday

Maximum temperature yesterday: 34 °F (at 2:20 pm)
Minimum temperature yesterday: 30 °F (at 6:20 am)
Average temperature yesterday: 32 °F

High & Low Weather Summary for the Past Weeks

 TemperatureHumidityPressure
High43 °F (Jan 11, 1:50 pm)100% (Jan 12, 6:59 pm)30.74 "Hg (Jan 12, 6:59 pm)
Low19 °F (Jan 16, 7:20 am)70% (Jan 19, 1:20 pm)29.06 "Hg (Jan 13, 6:20 am)
Average33 °F89%30.15 "Hg
* Reported Jan 9 7:20 pm — Jan 24 7:20 pm, Winsen (Luhe), Weather by CustomWeather, © 2017

Note: Actual official high and low records may vary slightly from our data, if they occured in-between our weather recording intervals... More about our weather records

Advertising

Winsen (Luhe) Weather History for the Previous 24 Hours

Scroll right to see more
 ConditionsComfort  
Time TempWeatherWind HumidityBarometerVisibility
7:20 pm
Tue, Jan 24
32 °FIce fog.6 mph93%30.45 "Hg1 mi
6:50 pm32 °FIce fog.6 mph93%30.42 "Hg2 mi
6:20 pm32 °FIce fog.7 mph100%30.42 "Hg2 mi
5:50 pm32 °FIce fog.5 mph100%30.42 "Hg1 mi
5:20 pm32 °FIce fog.5 mph100%30.42 "Hg2 mi
4:50 pm34 °FFog.5 mph93%30.42 "Hg1 mi
4:20 pm34 °FFog.5 mph93%30.42 "Hg2 mi
3:50 pm34 °FFog.6 mph93%30.39 "Hg2 mi
3:20 pm34 °FFog.5 mph93%30.39 "Hg2 mi
2:50 pm34 °FFog.5 mph93%30.39 "Hg2 mi
2:20 pm34 °FFog.6 mph93%30.39 "Hg2 mi
1:50 pm32 °FIce fog.8 mph100%30.39 "Hg2 mi
1:20 pm32 °FIce fog.7 mph100%30.39 "Hg2 mi
12:50 pm32 °FIce fog.6 mph93%30.39 "Hg2 mi
12:20 pm32 °FIce fog.7 mph93%30.39 "Hg2 mi
11:50 am32 °FIce fog.9 mph93%30.39 "Hg1 mi
11:20 am32 °FIce fog.9 mph93%30.39 "Hg2 mi
10:50 am32 °FIce fog.8 mph93%30.36 "Hg2 mi
10:20 am32 °FIce fog.8 mph100%30.36 "Hg2 mi
9:50 am32 °FIce fog.7 mph100%30.36 "Hg1 mi
9:20 am32 °FIce fog.8 mph100%30.33 "Hg1 mi
8:50 am32 °FIce fog.7 mph100%30.33 "Hg1 mi
8:20 am32 °FIce fog.7 mph100%30.33 "Hg1 mi
7:50 am34 °FFog.8 mph93%30.33 "Hg2 mi
7:20 am32 °FDrizzle. Ice fog.8 mph100%30.30 "Hg2 mi
6:50 am32 °FDrizzle. Ice fog.6 mph100%30.30 "Hg1 mi
6:20 am32 °FDrizzle. Ice fog.6 mph100%30.30 "Hg1 mi
5:50 am32 °FDrizzle. Ice fog.6 mph100%30.30 "Hg1 mi
Weather by CustomWeather, © 2017

See weather overviewHow to use our weather pages